Погода в Виньлонге

Вьетнам     10°15′13″N   105°58′16″E
темп.,
°C
ветер,
м/с
пор.,
м/с
влажн.,
%
обл.,
%
осадки,
мм/ч
давл.,
гПа
погр.,
м
2 марта, вт
вт201:00+23юв28914 0.0 1013304
04:00+23юв119611 0.0 101123
07:00+24вюв248914 0.0 1013206
10:00+32в465021 0.0 10141244
13:00+36в453715 0.0 10111980
16:00+35вюв563633 0.0 10081851
19:00+27юв596247 0.0 1010540
22:00+25вюв4118113 0.0 1012581
3 марта, ср
ср301:00+24вюв4118216 0.0 1011630
04:00+23вюв278675 0.0 1010307
07:00+24в398471 0.0 1012565
10:00+32в46490 0.0 10141305
13:00+36вюв66320 0.0 10112244
16:00+34вюв783843 0.0 10081595
19:00+28вюв5116146 0.0 1010722
22:00+26вюв513706 0.0 1012701
4 марта, чт
чт401:00+25вюв3127452 0.0 1012700
04:00+25вюв41374100 0.0 1011666
07:00+26в4127267 0.0 1012790
10:00+33в69460 0.0 10141547
13:00+36вюв67320 0.0 10112341
16:00+35вюв67324 0.0 10081735
19:00+27вюв49612 0.0 1010507
22:00+24вюв310880 0.0 1012496
5 марта, пт
пт501:00+23юв311910 0.0 1012513
04:00+23юв411910 0.0 1011532
07:00+24вюв411820 0.0 1012702
10:00+32в69410 0.0 10131246
13:00+36в67320 0.0 10101853
16:00+34вюв66330 0.0 10081552
19:00+26юв410690 0.0 1010540
22:00+23юв311880 0.0 1013521
6 марта, сб
сб601:00+22юв24950 0.0 1013136
04:00+22ююв11964 0.0 101223
07:00+23ююв12909 0.0 1013107
10:00+32вюв364734 0.0 10151387
13:00+36в452917 0.0 10112109
16:00+36вюв45310 0.0 10092426
19:00+27юв510651 0.0 1010555
22:00+24вюв310880 0.0 1013586